Flag for Germany Weather past 2 weeks in Kaiserslautern, Rhineland-Palatinate, Germany

Now
58 °F

Partly sunny.


Feels Like: 58 °F
Forecast: 37 / 68 °F
Wind: No wind

Location: Ramstein

Current Time: May 27, 2015 at 6:57:21 PM

Latest Report: May 27, 2015 at 5:58 PM


Visibility: N/A

Pressure: 30.23 "Hg

Humidity: 43%

Dew point: 35 °F

Location of KaiserslauternLocation

Historic Weather in Kaiserslautern — Graph

°F

Kaiserslautern temperature yesterday

Maximum temperature yesterday: 58 °F (at 5:58 PM)
Minimum temperature yesterday: 46 °F (at 4:58 AM)
Average temperature yesterday: 53 °F

Past Weeks' High & Low Weather Summary

 TemperatureHumidityPressure
High80 °F (May 12, 4:58 PM)100% (May 13, 3:58 AM)30.35 "Hg (May 13, 3:58 AM)
Low32 °F (May 21, 3:58 AM)33% (May 18, 5:58 PM)29.69 "Hg (May 19, 2:58 AM)
Average55 °F70%30.07 "Hg
* Reported May 12 4:58 PM — May 27 4:58 PM, Kaiserslautern, Weather by CustomWeather, © 2015

Note: Actual official high and low records may vary slightly from our data, if they occured in-between our weather recording intervals... More about our weather records

Advertising

Kaiserslautern weather history for previous 24 hours

 ConditionsComfort  
Time TempWeatherWind HumidityBarometerVisibility
4:58 PM
Wed, May 27
57 °FOvercast.5 mph43%30.24 "HgN/A
3:58 PM57 °FOvercast.7 mph44%30.25 "HgN/A
2:58 PM56 °FPartly sunny.7 mph47%30.26 "HgN/A
12:58 PM53 °FOvercast.9 mph52%30.28 "HgN/A
11:58 AM52 °FOvercast.6 mph52%30.27 "HgN/A
10:58 AM52 °FOvercast.6 mph53%30.29 "HgN/A
9:58 AM50 °FOvercast.7 mph62%30.29 "HgN/A
8:58 AM49 °FOvercast.2 mph69%30.27 "HgN/A
7:58 AM48 °FOvercast.2 mph76%30.27 "HgN/A
5:58 AM42 °FOvercast.No wind99%30.26 "HgN/A
4:58 AM42 °FOvercast.1 mph99%30.26 "HgN/A
3:58 AM40 °FOvercast.1 mph99%30.26 "HgN/A
2:58 AM39 °FPassing clouds.3 mph100%30.24 "HgN/A
1:58 AM41 °FClear.1 mph93%30.24 "HgN/A
12:58 AM43 °FClear.No wind93%30.23 "HgN/A
11:58 PM
Tue, May 26
50 °FPassing clouds.1 mph76%30.22 "HgN/A
10:58 PM50 °FMostly cloudy.No wind76%30.22 "HgN/A
9:58 PM52 °FOvercast.No wind72%30.22 "HgN/A
8:58 PM53 °FOvercast.No wind67%30.18 "HgN/A
7:58 PM55 °FOvercast.3 mph51%30.18 "HgN/A
6:58 PM56 °FOvercast.10 mph46%30.17 "HgN/A
Weather by CustomWeather, © 2015

See weather overviewHow to use our weather pages